(362760) = 2011 WP15

Discovered at Mount Lemmon on 2011-10-28 by Mt. Lemmon Survey.

Orbit

Orbit type: Main Belt

Note: WebGL enabled browser required.

epoch2023-09-13.0
epoch JD2460200.5
perihelion date2018-09-22.85837
perihelion JD2458384.35837
argument of perihelion (°)62.40265
ascending node (°)68.10881
inclination (°)12.51758
eccentricity0.0466601
perihelion distance (AU)3.0126644
Tisserand w.r.t. Jupiter3.2
ΔV w.r.t. Earth (km/sec)11.4
semimajor axis (AU)3.1601156
mean anomaly (°)318.63913
mean daily motion (°/day)0.17544840
aphelion distance (AU)3.308
period (years)5.62
P-vector [x]-0.63005322
P-vector [y]0.61392851
P-vector [z]0.47552574
Q-vector [x]-0.75005825
Q-vector [y]-0.63970241
Q-vector [z]-0.16790904
absolute magnitude15.5
phase slope0.15
uncertainty0
referenceMPEC 2024-C06
observations used392
oppositions16
arc length (days)8442
first opposition used2000
last opposition used2024
residual rms (arc-secs)0.66
perturbers coarse indicatorM-v
perturbers precise indicator003Ek
first observation date used2000-12-20.0
last observation date used2024-01-31.0
computer nameMPCLINUX
JD of orbit computation2456847.641538
perihelion JD uncertainty (days)5.3191E-04
argument of perihelion uncertainty (°)9.9449E-05
ascending node uncertainty (°)2.2069E-05
inclination uncertainty (°)6.9644E-06
eccentricity uncertainty 4.9105E-08
perihelion distance uncertainty (AU)1.4093E-07
Minimum Orbit Intersection Distances (in AU)
for orbit epoch: 2460400.5, reference: E2024-GB3
Mercury2.66425
Venus2.30356
Earth2.05254
Mars1.40946
Jupiter1.83287
Saturn5.98754
Uranus15.469
Neptune26.6575

Observations

398 total observations over interval: 2000 12 20.07769 – 2024 01 31.376781
These data are available for download (format description).

Date (UT) J2000 RA J2000 Dec Magn Location Ref
2000 12 20.07769 03 45 46.25 +19 30 05.1 20.9 V 691 – Steward Observatory, Kitt Peak-Spacewatch MPS 456429
2000 12 20.10492 03 45 45.15 +19 30 07.3 20.5 V 691 – Steward Observatory, Kitt Peak-Spacewatch MPS 456429
2000 12 20.13224 03 45 44.00 +19 30 10.1 20.7 V 691 – Steward Observatory, Kitt Peak-Spacewatch MPS 456429
2003 05 22.29584 15 26 57.35 -14 20 55.3 20.5 V 691 – Steward Observatory, Kitt Peak-Spacewatch MPS 456429
2003 05 22.32684 15 26 55.75 -14 20 55.4 20.5 V 691 – Steward Observatory, Kitt Peak-Spacewatch MPS 456429
2003 05 22.35522 15 26 54.27 -14 20 55.7 20.8 V 691 – Steward Observatory, Kitt Peak-Spacewatch MPS 456429
2005 10 22.20189 01 08 54.73 -07 49 58.3 19.7 R 644 – Palomar Mountain/NEAT MPS 456429
2005 10 22.26502 01 08 51.71 -07 50 02.9 19.6 R 644 – Palomar Mountain/NEAT MPS 456429
2005 10 22.33365 01 08 48.44 -07 50 07.4 19.9 R 644 – Palomar Mountain/NEAT MPS 456429
2006 12 14.31349 06 41 57.84 +30 50 10.5 20.1 R 644 – Palomar Mountain/NEAT MPS 456429
2006 12 14.33452 06 41 56.71 +30 50 17.1 19.7 R 644 – Palomar Mountain/NEAT MPS 456429
2006 12 14.35492 06 41 55.64 +30 50 23.2 19.7 R 644 – Palomar Mountain/NEAT MPS 456429
2008 03 09.45707 13 00 00.09 +11 35 24.8   291 – LPL/Spacewatch II MPS 456429
2008 03 09.46419 12 59 59.80 +11 35 27.0   291 – LPL/Spacewatch II MPS 456429
2008 03 09.47130 12 59 59.54 +11 35 29.0   291 – LPL/Spacewatch II MPS 456429
2011 10 28.32477 03 10 49.94 +09 42 41.4 19.4 V G96 – Mt. Lemmon Survey MPS 403929
2011 10 28.33051 03 10 49.65 +09 42 41.0 19.2 V G96 – Mt. Lemmon Survey MPS 403929
2011 10 28.33634 03 10 49.40 +09 42 40.8 19.5 V G96 – Mt. Lemmon Survey MPS 403929
2011 10 28.34211 03 10 49.11 +09 42 40.8 19.4 V G96 – Mt. Lemmon Survey MPS 403929
2011 11 03.29625 03 05 52.90 +09 37 57.3 19.8 V 703 – Catalina Sky Survey MPS 403929
2011 11 03.30507 03 05 52.44 +09 37 57.0 19.7 V 703 – Catalina Sky Survey MPS 403929
2011 11 03.31403 03 05 51.82 +09 37 56.4 19.2 V 703 – Catalina Sky Survey MPS 403929
2011 11 03.32295 03 05 51.46 +09 37 55.0 19.6 V 703 – Catalina Sky Survey MPS 403929
2011 11 16.12796 02 54 46.67 +09 32 42.6 19.9 R H15 – ISON-NM Observatory, Mayhill MPS 401320
2011 11 16.14241 02 54 45.90 +09 32 41.8 19.7 R H15 – ISON-NM Observatory, Mayhill MPS 401320
2011 11 16.15863 02 54 45.06 +09 32 41.7 19.9 R H15 – ISON-NM Observatory, Mayhill MPS 401320
2011 11 16.17315 02 54 44.21 +09 32 42.3 19.8 R H15 – ISON-NM Observatory, Mayhill MPS 401320
2011 11 23.16604 02 48 55.54 +09 34 07.9 19.4 V 703 – Catalina Sky Survey MPS 401320
2011 11 23.17630 02 48 55.04 +09 34 07.5 19.7 V 703 – Catalina Sky Survey MPS 401320
2011 11 23.18655 02 48 54.54 +09 34 09.0 19.8 V 703 – Catalina Sky Survey MPS 401320
2011 11 23.19687 02 48 54.03 +09 34 08.6 20.2 V 703 – Catalina Sky Survey MPS 401320
2013 01 15.43289 09 21 24.62 +31 53 45.2 20.6 V 703 – Catalina Sky Survey MPS 456429
2013 01 15.43901 09 21 24.40 +31 53 48.4 19.6 V 703 – Catalina Sky Survey MPS 456429
2013 01 15.44521 09 21 24.04 +31 53 50.6 19.8 V 703 – Catalina Sky Survey MPS 456429
2013 01 15.45139 09 21 23.86 +31 53 53.6 20.0 V 703 – Catalina Sky Survey MPS 456429
2013 02 08.25764 09 01 03.43 +34 10 35.0 20.1 V G96 – Mt. Lemmon Survey MPS 456429
2013 02 08.26286 09 01 03.14 +34 10 36.3 20.1 V G96 – Mt. Lemmon Survey MPS 456429
2013 02 08.26810 09 01 02.85 +34 10 37.5 19.8 V G96 – Mt. Lemmon Survey MPS 456429
2013 02 08.27340 09 01 02.56 +34 10 38.7 19.9 V G96 – Mt. Lemmon Survey MPS 456429
2013 02 18.20014 08 52 36.19 +34 38 46.8 20.1 V 703 – Catalina Sky Survey MPS 456429
2013 02 18.21096 08 52 35.72 +34 38 48.0 20.6 V 703 – Catalina Sky Survey MPS 456429
2013 02 18.21704 08 52 35.47 +34 38 48.6 20.6 V 703 – Catalina Sky Survey MPS 456429
2013 02 18.22318 08 52 35.04 +34 38 48.6 19.9 V 703 – Catalina Sky Survey MPS 456429
2013 04 02.13943 08 39 57.99 +33 21 40.5 20.3 V G96 – Mt. Lemmon Survey MPS 461703
2013 04 02.14365 08 39 58.03 +33 21 39.7 21.0 V G96 – Mt. Lemmon Survey MPS 461703
2013 04 02.14788 08 39 58.14 +33 21 39.0 21.3 V G96 – Mt. Lemmon Survey MPS 461703
2013 04 02.15215 08 39 58.14 +33 21 37.4 20.5 V G96 – Mt. Lemmon Survey MPS 461703
2013 04 02.15641 08 39 58.21 +33 21 36.1 21.6 V G96 – Mt. Lemmon Survey MPS 461703
2013 06 06.15737 09 34 08.40 +26 19 24.6 21.3 V G96 – Mt. Lemmon Survey MPS 469862
2013 06 06.16381 09 34 08.86 +26 19 22.2 21.2 V G96 – Mt. Lemmon Survey MPS 469862
2013 06 06.17028 09 34 09.37 +26 19 18.4 21.2 V G96 – Mt. Lemmon Survey MPS 469862
2013 06 06.17678 09 34 09.84 +26 19 15.3 21.0 V G96 – Mt. Lemmon Survey MPS 469862
2014 04 01.37531 14 43 43.80 -04 28 58.8 20.1 V G96 – Mt. Lemmon Survey MPS 509725
2014 04 01.38079 14 43 43.59 -04 28 58.0 20.1 V G96 – Mt. Lemmon Survey MPS 509725
2014 04 01.38627 14 43 43.41 -04 28 57.2 20.0 V G96 – Mt. Lemmon Survey MPS 509725
2014 04 01.39175 14 43 43.20 -04 28 56.5 20.0 V G96 – Mt. Lemmon Survey MPS 509725
2014 04 04.24485 14 42 02.70 -04 22 54.8 20.4 G G45 – Space Surveillance Telescope, Atom Site MPS 1610123
2014 04 04.30047 14 42 00.56 -04 22 48.3 20.3 G G45 – Space Surveillance Telescope, Atom Site MPS 1610123
2014 04 04.33266 14 41 59.33 -04 22 43.3 20.0 G G45 – Space Surveillance Telescope, Atom Site MPS 1610123
2014 04 04.36780 14 41 57.97 -04 22 40.8 19.9 G G45 – Space Surveillance Telescope, Atom Site MPS 1610123
2014 04 04.49615 14 41 53.242 -04 22 23.08 20.1 w F51 – Pan-STARRS 1, Haleakala MPS 511057
2014 04 04.50951 14 41 52.730 -04 22 21.38 20.1 w F51 – Pan-STARRS 1, Haleakala MPS 511057
2014 04 04.52288 14 41 52.207 -04 22 19.67 20.2 w F51 – Pan-STARRS 1, Haleakala MPS 511057
2014 04 04.53630 14 41 51.691 -04 22 17.98 20.2 w F51 – Pan-STARRS 1, Haleakala MPS 511057
2014 04 21.35804 14 29 37.55 -03 49 39.8 19.9 V 703 – Catalina Sky Survey MPS 512427
2014 04 21.37426 14 29 36.67 -03 49 40.4 20.8 V 703 – Catalina Sky Survey MPS 512427
2014 04 21.38237 14 29 36.32 -03 49 38.8 19.6 V 703 – Catalina Sky Survey MPS 512427
2014 04 24.31272 14 27 13.32 -03 45 08.2 19.9   W84 – Cerro Tololo-DECam MPS 790078
2014 04 24.31587 14 27 13.17 -03 45 07.9   W84 – Cerro Tololo-DECam MPS 790078
2014 04 24.31906 14 27 13.01 -03 45 07.6   W84 – Cerro Tololo-DECam MPS 790078
2014 04 24.32222 14 27 12.85 -03 45 07.4   W84 – Cerro Tololo-DECam MPS 790078
2014 04 24.32536 14 27 12.69 -03 45 07.1   W84 – Cerro Tololo-DECam MPS 790078
2014 04 24.41515 14 27 08.29 -03 45 03.9 19.6 V G96 – Mt. Lemmon Survey MPS 512427
2014 04 24.42174 14 27 07.96 -03 45 03.3 19.5 V G96 – Mt. Lemmon Survey MPS 512427
2014 04 24.42832 14 27 07.63 -03 45 03.0 19.4 V G96 – Mt. Lemmon Survey MPS 512427
2014 04 24.43492 14 27 07.30 -03 45 02.2 19.7 V G96 – Mt. Lemmon Survey MPS 512427
2014 04 25.32943 14 26 23.29 -03 43 43.4 19.9 V W84 – Cerro Tololo-DECam MPS 790078
2014 04 25.33258 14 26 23.13 -03 43 43.1   W84 – Cerro Tololo-DECam MPS 790078
2014 04 25.33577 14 26 22.97 -03 43 42.9   W84 – Cerro Tololo-DECam MPS 790078
2014 04 25.33902 14 26 22.80 -03 43 42.6   W84 – Cerro Tololo-DECam MPS 790078
2014 04 25.34216 14 26 22.64 -03 43 42.3   W84 – Cerro Tololo-DECam MPS 790078
2014 04 29.35352 14 23 04.779 -03 38 56.04 19.9 w F51 – Pan-STARRS 1, Haleakala MPS 513760
2014 04 29.36607 14 23 04.132 -03 38 55.24 20.0 w F51 – Pan-STARRS 1, Haleakala MPS 513760
2014 04 29.37864 14 23 03.496 -03 38 54.40 20.0 w F51 – Pan-STARRS 1, Haleakala MPS 513760
2014 04 29.39122 14 23 02.858 -03 38 53.65 20.0 w F51 – Pan-STARRS 1, Haleakala MPS 513760
2014 05 07.34769 14 16 36.371 -03 33 25.43 19.8 i F51 – Pan-STARRS 1, Haleakala MPS 515223
2014 05 07.36027 14 16 35.750 -03 33 25.32 19.8 i F51 – Pan-STARRS 1, Haleakala MPS 515223
2014 05 07.37286 14 16 35.141 -03 33 25.04 19.9 i F51 – Pan-STARRS 1, Haleakala MPS 515223
2014 05 07.38546 14 16 34.520 -03 33 24.79 19.8 i F51 – Pan-STARRS 1, Haleakala MPS 515223
2014 05 16.36069 14 09 53.298 -03 34 54.12 19.8 i F51 – Pan-STARRS 1, Haleakala MPS 516394
2014 05 16.37299 14 09 52.777 -03 34 54.60 19.9 i F51 – Pan-STARRS 1, Haleakala MPS 516394
2014 05 16.38528 14 09 52.248 -03 34 55.09 19.8 i F51 – Pan-STARRS 1, Haleakala MPS 516394
2014 05 16.39759 14 09 51.703 -03 34 55.55 19.9 i F51 – Pan-STARRS 1, Haleakala MPS 516394
